User: anonymous   Login
Location: Antichan
(42.9728°N, 0.6667°E)
Time: 09:05:14
(UTC+00:00)
Language:

Cosmos 1437 Rocket - Orbit

View from above orbital plane
View from above orbital plane
View from above satellite
View from above satellite

Ground track
Ground track

The orbit data is extracted from the following two-line orbital elements,

1 13771U 83003B   20293.83426450 +.00001221 +00000-0 +71044-4 0  9997
2 13771 081.1693 035.9488 0040180 274.3141 085.3494 15.10668777058027
Epoch (UTC): 19 October 2020 20:01:20
Eccentricity: 0.0040180
inclination: 81.1693°
perigee height: 506 km
apogee height: 562 km
right ascension of ascending node: 35.9488°
argument of perigee: 274.3141°
revolutions per day: 15.10668777
mean anomaly at epoch: 85.3494°
orbit number at epoch: 5802

The dashed part of the orbit path shows where the satellite is in the earth's shadow,  

DLR